Location: Unspecified
(0.0000°N, 0.0000°E)
Time: 17:55:58
(UTC+00:00)

STARLINK 1061 - Pass Details

Date: 20 January 2020
Orbit: 548 x 551 km, 53.0° (Epoch: 17 January)

Event Time Altitude Azimuth Distance (km) Brightness Sun altitude
Rises 05:21:16 0° 208° (SSW) 2,713 7.1 -11.6°
Reaches altitude 10° 05:23:31 10° 204° (SSW) 1,818 6.2 -11.1°
Maximum altitude 05:27:36 60° 124° (SE) 627 4.2 -10.1°
Drops below altitude 10° 05:31:39 10° 44° (NE) 1,809 6.6 -9.2°
Sets 05:33:54 0° 40° (NE) 2,699 7.4 -8.7°
